Location: Roanoke
(37.2710°N, 79.9420°W)
Time: 22:27:28
(UTC-05:00)

S-56A Canister/Altair - Pass Details

Date: 21 November 2019
Orbit: 633 x 2499 km, 38.9° (Epoch: 10 December)

Event Time Altitude Azimuth Distance (km) Brightness Sun altitude
Rises 21:23:03 0° 286° (WNW) 4,056 11.9 -50.8°
Reaches altitude 10° 21:26:19 10° 282° (WNW) 2,815 10.9 -51.4°
Enters shadow 21:26:34 11° 282° (WNW) 2,722 10.8 -51.4°
Maximum altitude 21:32:30 53° 207° (SSW) 968 - -52.6°
Drops below altitude 10° 21:37:06 10° 131° (SE) 2,105 - -53.5°
Sets 21:39:15 0° 126° (SE) 2,946 - -53.9°
